Tracking 25734 objects as of 28-May-2022
HD Live streaming from Space Station
objects crossing your sky now

SOLRAD 11B AKM

Track SOLRAD 11B AKM now!


NORAD ID: 8753
Int'l Code: 1976-023H
Perigee: 117,927.4 km
Apogee: 127,569.7 km
Inclination: 24.0 °
Period: 7,695.7 minutes
Semi major axis: 129119 km
RCS: Unknown
Launch date: March 15, 1976
Source: United States (US)
Launch site: AIR FORCE EASTERN TEST RANGE (AFETR)

Note: This is a ROCKET BODY
aabbcc
Your satellite tracking list
Your tracking list is empty




NASA's NSSDC Master Catalog

Two Line Element Set (TLE):
1 08753U 76023H   22133.05309756 -.00000793  00000-0  00000-0 0  9997
2 08753  24.0314 325.8674 0373387  66.8452   1.9452  0.18711782  2611
Source of the keplerian elements: AFSPC